[[{"header":{"parameterUnit":"m.s-1","parameterCategory":1,"la1":30.2992,"la2":30.254,"lo1":-89.0895,"lo2":-89.0443,"dy":0.0025,"dx":0.0025,"nx":19,"ny":19,"refTime":"2026-05-15T09:00:00:Z","depth":0,"parameterNumber":2,"parameterNumberName":"U-component_of_WINDS"},"data":[0,0,0,-2.3184,-2.3186,-2.3265,-2.3265,-2.3359,-2.3359,0,0,0,0,0,0,0,0,0,0,0,-2.3156,-2.3156,-2.3184,-2.3186,-2.3265,-2.3265,-2.3359,-2.3359,0,0,0,0,0,0,0,0,0,0,0,-2.3155,-2.3156,-2.3157,-2.3186,-2.3265,-2.3265,-2.3358,-2.3302,0,0,0,0,0,0,0,0,0,0,-2.3226,-2.3194,-2.3156,-2.3157,-2.3187,-2.3265,-2.3265,-2.3299,-2.3305,-2.3319,0,-2.333,0,-2.3346,-2.3365,-2.3365,0,0,0,-2.319,-2.3189,-2.3215,-2.3157,-2.3187,-2.3265,-2.3231,-2.3303,-2.331,-2.3328,-2.3332,-2.3335,-2.3348,-2.3366,-2.3366,-2.3434,-2.3434,0,0,-2.3186,-2.3167,-2.3211,-2.322,-2.3206,-2.3228,-2.3233,-2.3307,-2.331,-2.3332,-2.3338,-2.3349,-2.3366,-2.3367,-2.3434,-2.3434,0,0,0,-2.3171,-2.3164,-2.3188,-2.3215,-2.323,-2.323,-2.3236,-2.3307,-2.3316,-2.3339,-2.335,-2.3367,-2.3368,-2.3433,-2.3434,-2.3421,0,0,0,-2.3168,-2.3155,-2.3186,-2.3175,-2.3229,-2.3269,-2.3234,-2.3311,-2.332,-2.335,-2.3367,-2.3369,-2.3433,-2.3434,-2.3421,-2.3418,0,0,0,-2.3152,-2.3153,-2.3163,-2.3174,-2.3208,-2.3269,-2.3283,-2.3314,-2.3327,-2.3366,-2.3369,-2.3433,-2.3433,-2.3421,-2.3418,-2.343,0,0,0,-2.313,-2.315,-2.3162,-2.319,-2.3207,-2.326,-2.3282,-2.3323,-2.3355,-2.3367,-2.3433,-2.3434,-2.3421,-2.3418,-2.343,-2.3436,-2.3437,0,0,-2.3145,-2.3151,-2.3169,-2.3182,-2.3228,-2.325,-2.3295,-2.3342,-2.3363,-2.3409,-2.3411,-2.3421,-2.3418,-2.343,-2.345,-2.345,0,0,0,-2.3167,-2.318,-2.3196,-2.3225,-2.3261,-2.3292,-2.3334,-2.3352,-2.3392,-2.3382,-2.3429,-2.3428,-2.3436,-2.344,-2.344,-2.3448,-2.3435,-2.3435,-2.3435,-2.3161,-2.3187,-2.3218,-2.3254,-2.3282,-2.3325,-2.335,-2.3382,-2.34,-2.3411,-2.3424,-2.3433,-2.3436,-2.3437,-2.3445,-2.343,-2.343,-2.343,-2.343,-2.3185,-2.3206,-2.3231,-2.3269,-2.3297,-2.333,-2.3374,-2.3386,-2.3421,-2.3425,-2.3433,-2.3433,-2.3437,-2.3445,-2.3429,-2.3429,-2.3429,-2.343,-2.343,-2.3183,-2.3197,-2.3219,-2.3264,-2.3296,-2.3332,-2.3365,-2.3389,-2.3413,-2.3421,-2.3438,-2.3438,-2.3441,-2.3427,-2.3427,-2.3427,-2.3427,-2.3427,-2.3427,-2.3171,-2.3196,-2.322,-2.3261,-2.3283,-2.3316,-2.3361,-2.3383,-2.3415,-2.343,-2.3431,-2.3448,-2.3432,-2.3427,-2.3428,-2.3428,-2.3428,-2.3428,-2.3428,-2.3185,-2.3186,-2.3223,-2.3245,-2.3296,-2.3326,-2.3358,-2.3402,-2.3425,-2.344,-2.3456,-2.3441,-2.3449,-2.3449,-2.3445,-2.3451,-2.3451,-2.3451,-2.3451,-2.3182,-2.3189,-2.3233,-2.3267,-2.3303,-2.3336,-2.3378,-2.3414,-2.3451,-2.3467,-2.347,-2.3467,-2.3466,-2.3475,-2.3474,-2.3471,-2.3483,-2.3483,-2.3483,-2.3192,-2.3203,-2.3234,-2.327,-2.3311,-2.3347,-2.3387,-2.3426,-2.3469,-2.3485,-2.348,-2.3478,-2.3474,-2.3472,-2.3486,-2.3484,-2.3479,0,0]},{"header":{"parameterUnit":"m.s-1","parameterCategory":1,"la1":30.2992,"la2":30.254,"lo1":-89.0895,"lo2":-89.0443,"dy":0.0025,"dx":0.0025,"nx":19,"ny":19,"refTime":"2026-05-15T09:00:00:Z","depth":0,"parameterNumber":3,"parameterNumberName":"V-component_of_WINDS"},"data":[0,0,0,4.1281,4.1281,4.1258,4.1258,4.1232,4.1232,0,0,0,0,0,0,0,0,0,0,0,4.1291,4.1291,4.1281,4.1281,4.1258,4.1258,4.1232,4.1232,0,0,0,0,0,0,0,0,0,0,0,4.1291,4.1291,4.1291,4.1281,4.1258,4.1258,4.1232,4.1248,0,0,0,0,0,0,0,0,0,0,4.1269,4.1281,4.1291,4.1291,4.1281,4.1259,4.1258,4.1249,4.1247,4.1244,0,4.1243,0,4.1237,4.123,4.123,0,0,0,4.1278,4.1282,4.1274,4.1291,4.128,4.1259,4.1268,4.1248,4.1246,4.1242,4.1243,4.1242,4.1237,4.123,4.123,4.1226,4.1226,0,0,4.1279,4.1288,4.1275,4.1273,4.1278,4.1269,4.1267,4.1246,4.1247,4.1243,4.1241,4.1236,4.123,4.123,4.1225,4.1226,0,0,0,4.1285,4.1289,4.1281,4.1274,4.127,4.1268,4.1266,4.1248,4.1245,4.1241,4.1236,4.123,4.123,4.1225,4.1225,4.124,0,0,0,4.1285,4.1292,4.1281,4.1286,4.1271,4.1259,4.1269,4.1247,4.1244,4.1236,4.123,4.123,4.1225,4.1225,4.1239,4.1244,0,0,0,4.1291,4.1293,4.1291,4.1287,4.1278,4.1259,4.1255,4.1246,4.1241,4.123,4.123,4.1225,4.1225,4.1238,4.1243,4.1246,0,0,0,4.1299,4.1302,4.1291,4.1292,4.1278,4.1269,4.1255,4.1247,4.1239,4.123,4.1225,4.1225,4.1238,4.1243,4.1246,4.125,4.1253,0,0,4.1307,4.1303,4.1304,4.1293,4.1288,4.1272,4.1268,4.1252,4.1242,4.1231,4.1231,4.1239,4.1243,4.1246,4.1265,4.1267,0,0,0,4.1309,4.1309,4.1306,4.13,4.1289,4.128,4.1264,4.1258,4.1249,4.1239,4.1241,4.1243,4.1244,4.1246,4.1247,4.1248,4.1227,4.1227,4.1227,4.1332,4.1321,4.1321,4.1307,4.1302,4.1286,4.128,4.1269,4.1258,4.1259,4.1255,4.1269,4.1271,4.1272,4.1273,4.1257,4.1257,4.1257,4.1257,4.1343,4.1341,4.1329,4.1324,4.1313,4.1308,4.1293,4.1285,4.1279,4.127,4.127,4.1262,4.1275,4.1275,4.1258,4.1258,4.1258,4.1258,4.1258,4.1356,4.1354,4.1348,4.1339,4.1333,4.1319,4.1314,4.1303,4.1292,4.1293,4.1288,4.1287,4.1286,4.1291,4.1291,4.1291,4.1291,4.1291,4.1291,4.1373,4.1366,4.1364,4.1354,4.1349,4.1341,4.1326,4.132,4.1311,4.1303,4.1303,4.1292,4.1279,4.1276,4.1292,4.1292,4.1292,4.1292,4.1292,4.1388,4.1383,4.138,4.1375,4.1362,4.1357,4.1344,4.1334,4.1327,4.1325,4.1315,4.1307,4.1301,4.1299,4.1297,4.1317,4.1317,4.1317,4.1317,4.1399,4.1396,4.1391,4.1384,4.1376,4.1364,4.136,4.1348,4.1335,4.133,4.1326,4.1321,4.132,4.1315,4.1313,4.131,4.1334,4.1334,4.1334,4.1408,4.1404,4.1403,4.1392,4.1381,4.1372,4.1367,4.1359,4.1343,4.1334,4.1326,4.1326,4.1318,4.1316,4.1307,4.1304,4.1299,0,0]}]]